Zurück zum Katalog

STARLINK-5004

AktivKommunikationVLEO
NORAD 53923·PAYLOAD·🇺🇸 United States

Gestartet Sep 24, 2022 von Cape Canaveral Space Force Station

Loading…

Nächste Überflüge (nächste 24 Stunden)

TLE

AktuellSource: CelesTrak SupGP

Epoche: Sep 15, 2026, 01:59 UTC

1 53923C 22119AP  26258.08312500 -.00010238  00000+0 -64215-3 0  2583
2 53923  53.1587 183.0977 0001510  87.2670 115.6332 15.08831857    13

Verfolge STARLINK-5004 in Echtzeit mit AllMySat

Download on the App Store